Terminal Aerodrome Forecast
Issued by NWS Omaha/Valley, NE

Home | Current Version | Previous Version | Graphics & Text | Print | Product List | Glossary On
Versions: 1 2 3 4 5 6 7 8 9 10 11 12 13 14 15 16 17 18 19 20 21 22 23 24 25 26 27 28 29 30 31 32 33 34 35
914
FTUS43 KOAX 110520
TAFOFK
TAF
KOFK 110520Z 1106/1206 06006KT P6SM SCT009 OVC020
     FM110900 VRB05KT 6SM BR OVC012
      TEMPO 1110/1114 3SM BR OVC007
     FM111600 16010KT 6SM BR OVC015 PROB30 1116/1122 3SM -SN
     FM112300 18012KT P6SM OVC025=

USA.gov is the U.S. government's official web portal to all federal, state and local government web resources and services.